[[{"header":{"parameterUnit":"m.s-1","parameterCategory":1,"la1":30.2991,"la2":30.254,"lo1":-89.0895,"lo2":-89.0444,"dx":0.0017,"dy":0.0017,"nx":28,"ny":28,"refTime":"2022-12-14T09:00:00:Z","depth":0,"parameterNumber":2,"parameterNumberName":"U-component_of_WINDS"},"data":[0,0,0,0,0,0,0,0,0,0,0,0,0,0,0,0,0,0,0,0,0,0,0,0,0,0,0,0,0,0,0,0,0,0,0,0,0,0,0,0,0,0,0,0,0,0,0,0,0,0,0,0,0,0,0,0,0,0,-5.0722,-5.0724,0,-5.0932,-5.0935,-5.0937,-5.1005,-5.1004,-5.1003,-5.1002,-5.1217,-5.1224,-5.123,0,0,0,0,0,0,0,0,0,0,0,0,0,-5.0378,-5.0384,-5.0722,-5.0724,-5.0727,-5.0932,-5.0935,-5.0938,-5.1005,-5.1004,-5.1003,-5.1002,-5.1215,-5.1223,-5.1231,0,0,0,0,0,0,0,0,0,0,0,0,0,-5.0552,-5.0386,-5.0721,-5.0786,-5.0793,-5.0931,-5.0935,-5.0939,-5.1006,-5.1004,-5.1003,-5.1002,-5.1213,-5.1222,-5.1232,-5.1321,0,0,-5.1262,-5.1267,0,0,0,0,0,0,0,0,-5.0542,-5.0564,-5.0774,-5.0781,-5.079,-5.0941,-5.0893,-5.1067,-5.1006,-5.0925,-5.1002,-5.1001,-5.1127,-5.1144,-5.1186,-5.1331,-5.1341,-5.1263,-5.1269,-5.1274,-5.1276,0,0,0,0,0,0,0,-5.053,-5.0556,-5.0805,-5.0776,-5.0787,-5.0804,-5.0827,-5.0926,-5.1031,-5.0932,-5.0937,-5.0961,-5.1131,-5.1176,-5.1192,-5.1344,-5.1263,-5.1272,-5.1278,-5.1282,-5.1573,-5.1574,0,0,0,0,0,0,-5.0507,-5.0545,-5.0798,-5.0811,-5.066,-5.0811,-5.0837,-5.0894,-5.103,-5.105,-5.0962,-5.0964,-5.116,-5.118,-5.1199,-5.1312,-5.1273,-5.1283,-5.1288,-5.1571,-5.1573,-5.1575,0,0,0,0,0,0,-5.0499,-5.0529,-5.079,-5.068,-5.0715,-5.0818,-5.0882,-5.0899,-5.0944,-5.1053,-5.1072,-5.0989,-5.116,-5.1186,-5.1291,-5.132,-5.1287,-5.1296,-5.1569,-5.1572,-5.1574,-5.1538,0,0,0,0,0,0,-5.0489,-5.0526,-5.0561,-5.068,-5.072,-5.0877,-5.0884,-5.0904,-5.0961,-5.0965,-5.1084,-5.1102,-5.1161,-5.1275,-5.13,-5.1334,-5.1304,-5.1567,-5.157,-5.1573,-5.1537,-5.1539,-5.1541,0,0,0,0,0,-5.0477,-5.0542,-5.0562,-5.0592,-5.0766,-5.0879,-5.0902,-5.0968,-5.0964,-5.0999,-5.1069,-5.1098,-5.1314,-5.1285,-5.1314,-5.1351,-5.1565,-5.1569,-5.1573,-5.1536,-5.1539,-5.1541,0,0,0,0,0,0,-5.0423,-5.0559,-5.0583,-5.0689,-5.0772,-5.089,-5.0937,-5.0969,-5.1055,-5.1055,-5.1134,-5.116,-5.1258,-5.1316,-5.1282,-5.1444,-5.1441,-5.145,-5.1403,-5.1406,-5.1408,-5.1392,-5.1312,0,0,0,0,0,-5.0424,-5.0505,-5.0619,-5.0702,-5.0742,-5.0832,-5.0884,-5.0928,-5.1017,-5.1053,-5.113,-5.1215,-5.1302,-5.1358,-5.1444,-5.1547,-5.1573,-5.1586,-5.1588,-5.1589,-5.1596,-5.1654,-5.1661,-5.1588,-5.1588,-5.1588,0,0,-5.0426,-5.051,-5.0556,-5.0693,-5.0763,-5.0844,-5.0861,-5.0947,-5.1008,-5.1066,-5.1169,-5.1229,-5.133,-5.1433,-5.1483,-5.1484,-5.1622,-5.1594,-5.1594,-5.1601,-5.1659,-5.1665,-5.1671,-5.1591,-5.159,-5.159,0,0,-5.0471,-5.0543,-5.062,-5.0689,-5.0794,-5.0854,-5.0872,-5.0986,-5.1028,-5.1133,-5.1178,-5.1252,-5.14,-5.147,-5.1524,-5.1596,-5.1625,-5.1622,-5.1632,-5.1687,-5.1693,-5.1698,-5.1722,-5.173,-5.1629,-5.1629,-5.1629,0,-5.046,-5.0584,-5.0655,-5.0738,-5.0796,-5.0853,-5.0931,-5.0995,-5.1122,-5.1161,-5.1161,-5.1348,-5.142,-5.154,-5.1557,-5.16,-5.1623,-5.1608,-5.1686,-5.1692,-5.1699,-5.1722,-5.1732,-5.1628,-5.1628,-5.1628,-5.1628,0,-5.0565,-5.065,-5.0699,-5.0821,-5.0885,-5.0965,-5.1048,-5.1104,-5.1143,-5.1203,-5.1309,-5.1397,-5.1502,-5.1534,-5.1573,-5.166,-5.1657,-5.1671,-5.1668,-5.1703,-5.1727,-5.1737,-5.1626,-5.1627,-5.1627,-5.1627,0,0,-5.058,-5.074,-5.0757,-5.0813,-5.0933,-5.1,-5.1083,-5.1185,-5.1232,-5.1318,-5.1389,-5.1513,-5.1526,-5.1588,-5.1636,-5.1685,-5.1734,-5.1692,-5.1696,-5.1695,-5.1834,-5.1822,-5.1832,-5.1755,-5.1757,-5.1759,-5.1825,0,-5.0639,-5.0789,-5.0855,-5.0974,-5.1053,-5.1109,-5.1181,-5.1262,-5.132,-5.1396,-5.1461,-5.1547,-5.1559,-5.1596,-5.1647,-5.1717,-5.1763,-5.1714,-5.1821,-5.1823,-5.1792,-5.1844,-5.1832,-5.189,-5.1835,-5.1837,-5.1838,0,-5.0728,-5.0814,-5.0941,-5.1051,-5.1087,-5.115,-5.1249,-5.1321,-5.1415,-5.1454,-5.1523,-5.1569,-5.1657,-5.165,-5.1773,-5.1738,-5.1786,-5.1827,-5.1831,-5.1842,-5.1831,-5.1855,-5.1911,-5.1918,-5.1854,-5.1853,-5.1851,0,-5.0724,-5.0872,-5.0967,-5.1014,-5.1145,-5.1188,-5.1245,-5.1337,-5.1394,-5.1481,-5.1519,-5.1615,-5.1667,-5.1741,-5.181,-5.1799,-5.1926,-5.1925,-5.196,-5.1958,-5.1983,-5.198,-5.2045,-5.2017,-5.2017,-5.2016,-5.2016,0,-5.0782,-5.0857,-5.0967,-5.1025,-5.1111,-5.1187,-5.127,-5.1331,-5.1412,-5.1483,-5.1538,-5.1603,-5.1693,-5.1769,-5.1825,-5.1917,-5.1941,-5.1975,-5.1988,-5.1969,-5.1964,-5.2,-5.1997,-5.2019,-5.2018,-5.2018,-5.2017,0,-5.0792,-5.0869,-5.0976,-5.1092,-5.1123,-5.1181,-5.128,-5.1338,-5.14,-5.1489,-5.1514,-5.161,-5.1703,-5.1781,-5.1903,-5.1941,-5.2036,-5.2053,-5.2004,-5.2011,-5.2041,-5.2037,-5.213,-5.2146,-5.2108,-5.2108,-5.2108,0,-5.0823,-5.0882,-5.1004,-5.1055,-5.1111,-5.1193,-5.1252,-5.1329,-5.1388,-5.1499,-5.1544,-5.1641,-5.1722,-5.1869,-5.1949,-5.2043,-5.2062,-5.2088,-5.2076,-5.2055,-5.206,-5.2055,-5.2061,-5.2088,-5.2088,-5.2088,-5.2088,0,-5.0869,-5.0904,-5.0986,-5.1082,-5.115,-5.123,-5.131,-5.1349,-5.1441,-5.1504,-5.16,-5.1663,-5.1788,-5.1884,-5.1986,-5.2045,-5.2082,-5.2092,-5.2105,-5.2084,-5.2053,-5.2069,-5.2005,-5.2089,-5.2089,-5.2089,-5.2089,-5.2089,-5.0889,-5.0944,-5.1038,-5.1128,-5.1197,-5.1271,-5.1331,-5.14,-5.1481,-5.1588,-5.163,-5.1727,-5.182,-5.1961,-5.202,-5.2098,-5.2103,-5.2121,-5.2126,-5.2129,-5.2125,-5.2042,-5.2117,-5.2117,-5.2117,-5.2118,-5.2118,0,-5.0937,-5.1,-5.1082,-5.1193,-5.1264,-5.1293,-5.1383,-5.144,-5.1525,-5.1609,-5.1688,-5.1797,-5.189,-5.1979,-5.2076,-5.2121,-5.214,-5.2144,-5.214,-5.2153,-5.2116,-5.2095,-5.2127,-5.2127,-5.2127,-5.2127,-5.2127,-5.2127,-5.097,-5.1063,-5.111,-5.1238,-5.1302,-5.1397,-5.1446,-5.1515,-5.1581,-5.1701,-5.1779,-5.1836,-5.1921,-5.2025,-5.2112,-5.2135,-5.2168,-5.2167,-5.2194,-5.2158,-5.2156,-5.2154,-5.2134,-5.2173,-5.2174,-5.2225,-5.2225,-5.2225]},{"header":{"parameterUnit":"m.s-1","parameterCategory":1,"la1":30.2991,"la2":30.254,"lo1":-89.0895,"lo2":-89.0444,"dx":0.0017,"dy":0.0017,"nx":28,"ny":28,"refTime":"2022-12-14T09:00:00:Z","depth":0,"parameterNumber":3,"parameterNumberName":"V-component_of_WINDS"},"data":[0,0,0,0,0,0,0,0,0,0,0,0,0,0,0,0,0,0,0,0,0,0,0,0,0,0,0,0,0,0,0,0,0,0,0,0,0,0,0,0,0,0,0,0,0,0,0,0,0,0,0,0,0,0,0,0,0,0,3.971,3.9711,0,3.9832,3.9833,3.9835,3.9892,3.9892,3.9892,3.9892,4.0013,4.0016,4.0019,0,0,0,0,0,0,0,0,0,0,0,0,0,3.9525,3.9528,3.971,3.9711,3.9713,3.9832,3.9833,3.9835,3.9892,3.9892,3.9892,3.9892,4.0012,4.0015,4.0019,0,0,0,0,0,0,0,0,0,0,0,0,0,3.9622,3.9529,3.9709,3.9756,3.9761,3.9831,3.9833,3.9835,3.9892,3.9892,3.9892,3.9892,4.001,4.0015,4.002,4.0051,0,0,4.0035,4.0037,0,0,0,0,0,0,0,0,3.9616,3.9628,3.9748,3.9753,3.9759,3.9847,3.9812,3.9908,3.9892,3.9842,3.9892,3.9892,3.9957,3.9966,3.9989,4.0057,4.0062,4.0035,4.0038,4.004,4.0042,0,0,0,0,0,0,0,3.9609,3.9623,3.9758,3.9749,3.9756,3.977,3.9784,3.9831,3.9899,3.9847,3.9851,3.9865,3.996,3.9985,3.9993,4.0064,4.0035,4.0039,4.0042,4.0044,4.0168,4.0168,0,0,0,0,0,0,3.9595,3.9617,3.9754,3.9762,3.9686,3.9774,3.9789,3.9819,3.9898,3.9911,3.9865,3.9868,3.9976,3.9987,3.9997,4.0042,4.004,4.0045,4.0048,4.0168,4.0168,4.0168,0,0,0,0,0,0,3.9591,3.9607,3.9749,3.9691,3.971,3.9777,3.981,3.9821,3.9846,3.9912,3.9924,3.9878,3.9977,3.999,4.0039,4.0047,4.0047,4.0051,4.0167,4.0168,4.0168,4.013,0,0,0,0,0,0,3.9586,3.9605,3.9618,3.9691,3.9713,3.9789,3.981,3.9824,3.9854,3.9859,3.9927,3.9938,3.9978,4.0031,4.0044,4.0054,4.0055,4.0167,4.0167,4.0168,4.0131,4.013,4.0128,0,0,0,0,0,3.9579,3.9601,3.9618,3.9634,3.9731,3.9789,3.9802,3.9848,3.9855,3.9868,3.9912,3.9936,4.0044,4.0036,4.005,4.0062,4.0166,4.0167,4.0168,4.0132,4.013,4.0128,0,0,0,0,0,0,3.9524,3.9611,3.9631,3.9677,3.9726,3.9799,3.9817,3.9844,3.989,3.9892,3.9946,3.9961,4.0005,4.0038,4.0027,4.0099,4.0108,4.0111,4.0075,4.0074,4.0072,4.0064,4.0059,0,0,0,0,0,3.9518,3.956,3.9632,3.9666,3.969,3.9749,3.9776,3.9808,3.986,3.988,3.9927,3.9975,4.0021,4.0049,4.0094,4.0137,4.0153,4.0152,4.015,4.0149,4.0151,4.0179,4.018,4.0171,4.0171,4.0171,0,0,3.9504,3.9557,3.9579,3.9657,3.9698,3.974,3.9766,3.9808,3.984,3.9886,3.9936,3.9972,4.003,4.0077,4.0099,4.0105,4.0158,4.015,4.0148,4.0152,4.018,4.0181,4.0182,4.0172,4.0171,4.0171,0,0,3.9502,3.9545,3.958,3.9622,3.9685,3.9725,3.9734,3.9804,3.9831,3.9882,3.9919,3.9957,4.0033,4.0074,4.0104,4.0122,4.0146,4.0134,4.0126,4.0153,4.0154,4.0155,4.0163,4.0165,4.0137,4.0137,4.0137,0,3.9477,3.9542,3.9593,3.9635,3.9669,3.9716,3.9752,3.9789,3.9863,3.9885,3.9892,3.9991,4.0033,4.0091,4.0096,4.0118,4.0131,4.0127,4.015,4.0151,4.0153,4.0162,4.0164,4.0135,4.0135,4.0135,4.0136,0,3.9509,3.9554,3.9575,3.9648,3.9684,3.9722,3.978,3.981,3.9839,3.9879,3.9932,3.9985,4.0043,4.0059,4.0086,4.0122,4.0125,4.014,4.015,4.0151,4.016,4.0164,4.0133,4.0133,4.0134,4.0134,0,0,3.9473,3.9578,3.9585,3.962,3.9696,3.9731,3.9772,3.9832,3.9858,3.9908,3.9944,4.001,4.0026,4.006,4.0094,4.0117,4.0131,4.013,4.0132,4.013,4.0176,4.0165,4.0168,4.0148,4.0149,4.0149,4.0172,0,3.9482,3.956,3.9609,3.9667,3.9711,3.9758,3.9794,3.9844,3.9883,3.9926,3.9968,4.0015,4.0031,4.0053,4.0078,4.0123,4.0141,4.0122,4.0183,4.0184,4.0168,4.0172,4.016,4.0178,4.0175,4.0176,4.0176,0,3.9502,3.9555,3.9618,3.9692,3.9712,3.9744,3.9805,3.9844,3.9903,3.993,3.9971,4.0006,4.0052,4.0059,4.0124,4.0111,4.0139,4.0165,4.0167,4.0174,4.0181,4.0181,4.0185,4.0188,4.0182,4.0181,4.0181,0,3.9472,3.9558,3.9609,3.9637,3.9724,3.9746,3.9783,3.9842,3.9876,3.9928,3.9951,4.0007,4.0038,4.008,4.013,4.013,4.0191,4.0201,4.0215,4.0214,4.0225,4.0224,4.0235,4.0242,4.0242,4.0242,4.0241,0,3.9478,3.9515,3.9597,3.9627,3.9671,3.9728,3.9769,3.981,3.9863,3.9903,3.9946,3.9982,4.0045,4.0089,4.0127,4.0177,4.019,4.0213,4.0223,4.021,4.0207,4.0229,4.023,4.0242,4.0242,4.0242,4.0242,0,3.9451,3.9507,3.9565,3.9645,3.9666,3.9694,3.9762,3.9794,3.9837,3.9887,3.9902,3.9968,4.0023,4.0077,4.0149,4.0175,4.0225,4.0237,4.0206,4.0211,4.0223,4.0222,4.0249,4.0256,4.0256,4.0256,4.0256,0,3.9451,3.9481,3.9565,3.9596,3.9633,3.9681,3.9718,3.9775,3.9811,3.9882,3.9906,3.9964,4.0014,4.0099,4.0153,4.021,4.0225,4.0231,4.0234,4.0221,4.0227,4.0225,4.023,4.0229,4.0229,4.0229,4.0228,0,3.9445,3.9473,3.9524,3.9586,3.9628,3.9678,3.973,3.9753,3.9821,3.9859,3.9917,3.9956,4.0032,4.009,4.0154,4.0191,4.0222,4.0228,4.0234,4.0221,4.0202,4.0215,4.0203,4.0226,4.0227,4.0227,4.0227,4.0227,3.9433,3.9464,3.9529,3.9585,3.9631,3.968,3.9715,3.9764,3.9814,3.9882,3.9913,3.9972,4.0033,4.0122,4.016,4.0206,4.0214,4.0223,4.0225,4.0227,4.0225,4.0195,4.0218,4.0218,4.0218,4.0218,4.0218,0,3.9432,3.9477,3.9528,3.9602,3.9647,3.9674,3.9734,3.9769,3.9821,3.9876,3.9926,3.9994,4.0051,4.0112,4.0173,4.0199,4.0215,4.0213,4.0212,4.0221,4.0214,4.0203,4.02,4.02,4.02,4.02,4.02,4.02,3.9436,3.9491,3.9526,3.9605,3.965,3.9709,3.9742,3.9788,3.9833,3.9907,3.9956,3.9996,4.0054,4.0121,4.0175,4.0192,4.0213,4.0208,4.0228,4.022,4.0221,4.0222,4.0212,4.0211,4.0211,4.0232,4.0232,4.0232]}]]